Back to catalog

SCOUT A-1 R/B

AlivePO
NORAD 6910·ROCKET BODY·🇺🇸 United States

Launched Oct 30, 1973 from Vandenberg Space Force Base

Loading…

Next Passes (next 24 hours)

TLE

FreshSource: Space-Track

Epoch: Sep 14, 2026, 10:12 UTC

1 06910U 73081B   26257.42509849  .00000002  00000-0 -96648-5 0  9999
2 06910  89.8669 248.8792 0159355  44.0927 317.2813 13.69801681639048

Track SCOUT A-1 R/B in real time with AllMySat

Download on the App Store